Private Wetterstation Wechselburg
Wetterdaten: Samstag, 15.09.2012
Datum Zeit Temp. +2m Bodentemp. Temp.+5cm Temp. Wind Windchill X Diff Temp. Feuchte +2m Feuchte +5cm Sonnenschein Luftdruck Regen Wind Richtung Richtung Sonnenschein UV Taupunkt Windchill Windben
15.09.2012 00:00 15,5 C 20,6 C 15,1 C 15,4 C 15,2 C 0,0 C 69 % 75 % 0 % 1011,1 hPa 0,0 l/m 7,6 km/h (2 Bft) W 270 0 min 0,0 UV-I 9,8 C 15,2 C 10,9 km/h (2 Bft)
15.09.2012 00:05 15,4 C 20,6 C 15,1 C 15,3 C 15,0 C 0,0 C 70 % 76 % 0 % 1011,4 hPa 0,0 l/m 7,7 km/h (2 Bft) W-SW 247 0 min 0,0 UV-I 10,0 C 15,0 C 5,5 km/h (1 Bft)
15.09.2012 00:10 15,1 C 20,6 C 14,8 C 14,8 C 13,7 C 0,0 C 73 % 78 % 0 % 1011,4 hPa 0,0 l/m 7,9 km/h (2 Bft) SW 225 0 min 0,0 UV-I 10,3 C 13,7 C 9,0 km/h (2 Bft)
15.09.2012 00:15 14,8 C 20,6 C 14,5 C 14,4 C 13,6 C 0,0 C 73 % 78 % 0 % 1011,4 hPa 0,0 l/m 6,9 km/h (2 Bft) W-SW 247 0 min 0,0 UV-I 10,0 C 13,6 C 13,4 km/h (3 Bft)
15.09.2012 00:20 14,6 C 20,6 C 14,5 C 14,3 C 13,6 C 0,0 C 74 % 78 % 0 % 1011,4 hPa 0,0 l/m 6,6 km/h (2 Bft) SW 225 0 min 0,0 UV-I 10,0 C 13,6 C 7,6 km/h (2 Bft)
15.09.2012 00:25 14,7 C 20,6 C 14,4 C 14,4 C 13,7 C 0,0 C 75 % 79 % 0 % 1011,2 hPa 0,0 l/m 6,3 km/h (2 Bft) SW 225 0 min 0,0 UV-I 10,3 C 13,7 C 10,3 km/h (2 Bft)
15.09.2012 00:30 14,5 C 20,6 C 14,5 C 14,3 C 13,9 C 0,0 C 75 % 79 % 0 % 1011,2 hPa 0,0 l/m 6,0 km/h (2 Bft) SW 225 0 min 0,0 UV-I 10,1 C 13,9 C 11,7 km/h (2 Bft)
15.09.2012 00:35 14,7 C 20,6 C 14,4 C 14,4 C 13,9 C 0,0 C 75 % 79 % 0 % 1011,2 hPa 0,0 l/m 8,2 km/h (2 Bft) SW 225 0 min 0,0 UV-I 10,3 C 13,9 C 17,5 km/h (3 Bft)
15.09.2012 00:41 14,7 C 20,6 C 14,5 C 14,5 C 14,2 C 0,0 C 74 % 79 % 0 % 1011,5 hPa 0,0 l/m 7,4 km/h (2 Bft) N 0 0 min 0,0 UV-I 10,1 C 14,2 C 5,1 km/h (1 Bft)
15.09.2012 00:55 14,7 C 20,6 C 14,5 C 14,5 C 14,2 C 0,0 C 74 % 79 % 0 % 1011,5 hPa 0,0 l/m 8,2 km/h (2 Bft) W-SW 247 0 min 0,0 UV-I 10,1 C 14,2 C 17,4 km/h (3 Bft)
15.09.2012 01:00 14,7 C 20,6 C 14,5 C 14,6 C 14,1 C 0,0 C 74 % 79 % 0 % 1011,5 hPa 0,0 l/m 10,0 km/h (2 Bft) O 90 0 min 0,0 UV-I 10,1 C 14,1 C 13,7 km/h (3 Bft)
15.09.2012 01:05 14,7 C 20,6 C 14,4 C 14,5 C 14,1 C 0,0 C 74 % 79 % 0 % 1011,6 hPa 0,0 l/m 11,3 km/h (2 Bft) W-SW 247 0 min 0,0 UV-I 10,1 C 14,1 C 20,4 km/h (4 Bft)
15.09.2012 01:10 14,7 C 20,6 C 14,5 C 14,6 C 14,2 C 0,0 C 74 % 79 % 0 % 1011,6 hPa 0,0 l/m 10,8 km/h (2 Bft) W-SW 247 0 min 0,0 UV-I 10,1 C 14,2 C 10,8 km/h (2 Bft)
15.09.2012 01:15 14,7 C 20,6 C 14,4 C 14,6 C 14,4 C 0,0 C 74 % 79 % 0 % 1011,6 hPa 0,0 l/m 8,9 km/h (2 Bft) W-SW 247 0 min 0,0 UV-I 10,1 C 14,4 C 10,8 km/h (2 Bft)
15.09.2012 01:20 14,7 C 20,6 C 14,4 C 14,6 C 14,4 C 0,0 C 74 % 79 % 0 % 1011,6 hPa 0,0 l/m 8,5 km/h (2 Bft) W-SW 247 0 min 0,0 UV-I 10,1 C 14,4 C 9,3 km/h (2 Bft)
15.09.2012 01:25 14,7 C 20,6 C 14,5 C 14,6 C 14,3 C 0,0 C 74 % 79 % 0 % 1011,9 hPa 0,0 l/m 8,7 km/h (2 Bft) W 270 0 min 0,0 UV-I 10,1 C 14,3 C 22,2 km/h (4 Bft)
15.09.2012 01:30 14,7 C 20,6 C 14,4 C 14,6 C 14,2 C 0,0 C 74 % 79 % 0 % 1011,9 hPa 0,0 l/m 8,5 km/h (2 Bft) S-SW 202 0 min 0,0 UV-I 10,1 C 14,2 C 10,8 km/h (2 Bft)
15.09.2012 01:35 14,7 C 20,6 C 14,4 C 14,5 C 14,2 C 0,0 C 74 % 80 % 0 % 1011,9 hPa 0,0 l/m 8,2 km/h (2 Bft) S-SW 202 0 min 0,0 UV-I 10,1 C 14,2 C 12,9 km/h (3 Bft)
15.09.2012 01:40 14,7 C 20,6 C 14,3 C 14,6 C 14,3 C 0,0 C 74 % 80 % 0 % 1011,9 hPa 0,0 l/m 7,9 km/h (2 Bft) SW 225 0 min 0,0 UV-I 10,1 C 14,3 C 9,2 km/h (2 Bft)
15.09.2012 01:45 14,7 C 20,7 C 14,2 C 14,5 C 13,9 C 0,0 C 74 % 80 % 0 % 1012,0 hPa 0,0 l/m 9,0 km/h (2 Bft) W 270 0 min 0,0 UV-I 10,1 C 13,9 C 8,4 km/h (2 Bft)
15.09.2012 01:50 14,7 C 20,7 C 14,2 C 14,4 C 13,6 C 0,0 C 74 % 81 % 0 % 1012,0 hPa 0,0 l/m 7,7 km/h (2 Bft) W-SW 247 0 min 0,0 UV-I 10,1 C 13,6 C 5,3 km/h (1 Bft)
15.09.2012 01:55 14,7 C 20,7 C 14,0 C 14,2 C 13,3 C 0,0 C 74 % 81 % 0 % 1012,0 hPa 0,0 l/m 6,6 km/h (2 Bft) W-SW 247 0 min 0,0 UV-I 10,1 C 13,3 C 11,1 km/h (2 Bft)
15.09.2012 02:00 14,7 C 20,7 C 14,0 C 14,2 C 13,3 C 0,0 C 74 % 81 % 0 % 1012,0 hPa 0,0 l/m 6,3 km/h (2 Bft) W-SW 247 0 min 0,0 UV-I 10,1 C 13,3 C 3,9 km/h (1 Bft)
15.09.2012 02:05 14,7 C 20,7 C 13,9 C 14,2 C 13,3 C 0,0 C 74 % 81 % 0 % 1012,2 hPa 0,0 l/m 6,3 km/h (2 Bft) W-SW 247 0 min 0,0 UV-I 10,1 C 13,3 C 8,5 km/h (2 Bft)
15.09.2012 02:10 14,7 C 20,7 C 13,8 C 14,2 C 13,1 C 0,0 C 74 % 82 % 0 % 1012,2 hPa 0,0 l/m 6,6 km/h (2 Bft) S 180 0 min 0,0 UV-I 10,1 C 13,1 C 9,7 km/h (2 Bft)
15.09.2012 02:15 14,7 C 20,7 C 13,7 C 14,2 C 13,2 C 0,0 C 74 % 82 % 0 % 1012,2 hPa 0,0 l/m 6,0 km/h (2 Bft) W-SW 247 0 min 0,0 UV-I 10,1 C 13,2 C 8,2 km/h (2 Bft)
15.09.2012 02:20 14,7 C 20,7 C 13,7 C 14,2 C 13,1 C 0,0 C 74 % 82 % 0 % 1012,2 hPa 0,0 l/m 5,6 km/h (1 Bft) W-SW 247 0 min 0,0 UV-I 10,1 C 13,1 C 6,9 km/h (2 Bft)
15.09.2012 02:25 13,6 C 20,7 C 13,6 C 13,4 C 12,9 C 0,0 C 78 % 82 % 0 % 1012,4 hPa 0,0 l/m 5,0 km/h (1 Bft) W-SW 247 0 min 0,0 UV-I 9,8 C 12,9 C 4,7 km/h (1 Bft)
15.09.2012 02:30 13,7 C 20,7 C 13,5 C 13,4 C 12,8 C 0,0 C 78 % 82 % 0 % 1012,4 hPa 0,0 l/m 3,9 km/h (1 Bft) SW 225 0 min 0,0 UV-I 9,9 C 12,8 C 5,0 km/h (1 Bft)
15.09.2012 02:35 13,4 C 20,7 C 13,5 C 13,1 C 12,6 C 0,0 C 78 % 82 % 0 % 1012,4 hPa 0,0 l/m 3,7 km/h (1 Bft) W-SW 247 0 min 0,0 UV-I 9,6 C 12,6 C 4,5 km/h (1 Bft)
15.09.2012 02:40 13,3 C 20,7 C 13,5 C 13,1 C 12,6 C 0,0 C 79 % 82 % 0 % 1012,4 hPa 0,0 l/m 4,3 km/h (1 Bft) S-SW 202 0 min 0,0 UV-I 9,7 C 12,6 C 6,8 km/h (2 Bft)
15.09.2012 02:45 13,2 C 20,7 C 13,3 C 13,0 C 12,5 C 0,0 C 79 % 83 % 0 % 1012,2 hPa 0,0 l/m 4,3 km/h (1 Bft) SW 225 0 min 0,0 UV-I 9,6 C 12,5 C 4,7 km/h (1 Bft)
15.09.2012 02:50 13,1 C 20,7 C 13,3 C 12,9 C 12,4 C 0,0 C 79 % 83 % 0 % 1012,2 hPa 0,0 l/m 3,9 km/h (1 Bft) SW 225 0 min 0,0 UV-I 9,5 C 12,4 C 4,3 km/h (1 Bft)
15.09.2012 02:55 12,9 C 20,8 C 13,3 C 12,7 C 12,3 C 0,0 C 80 % 83 % 0 % 1012,2 hPa 0,0 l/m 4,0 km/h (1 Bft) W-SW 247 0 min 0,0 UV-I 9,5 C 12,3 C 6,1 km/h (2 Bft)
15.09.2012 03:00 12,8 C 20,8 C 13,2 C 12,6 C 12,1 C 0,0 C 80 % 83 % 0 % 1012,2 hPa 0,0 l/m 4,2 km/h (1 Bft) SW 225 0 min 0,0 UV-I 9,4 C 12,1 C 3,9 km/h (1 Bft)
15.09.2012 03:05 12,7 C 20,8 C 13,1 C 12,5 C 12,1 C 0,0 C 80 % 84 % 0 % 1012,4 hPa 0,0 l/m 3,9 km/h (1 Bft) S-SO 157 0 min 0,0 UV-I 9,3 C 12,1 C 5,8 km/h (2 Bft)
15.09.2012 03:10 12,4 C 20,8 C 13,0 C 12,3 C 12,1 C 0,0 C 80 % 84 % 0 % 1012,4 hPa 0,0 l/m 4,3 km/h (1 Bft) S-SW 202 0 min 0,0 UV-I 9,0 C 12,1 C 3,7 km/h (1 Bft)
15.09.2012 03:15 12,5 C 20,8 C 13,1 C 12,4 C 12,3 C 0,0 C 81 % 84 % 0 % 1012,4 hPa 0,0 l/m 4,7 km/h (1 Bft) W-SW 247 0 min 0,0 UV-I 9,3 C 12,3 C 5,8 km/h (2 Bft)
15.09.2012 03:20 12,4 C 20,8 C 13,0 C 12,4 C 12,4 C 0,0 C 81 % 84 % 0 % 1012,4 hPa 0,0 l/m 4,3 km/h (1 Bft) W-SW 247 0 min 0,0 UV-I 9,2 C 12,4 C 4,7 km/h (1 Bft)
15.09.2012 03:25 12,4 C 20,8 C 13,1 C 12,3 C 12,2 C 0,0 C 81 % 84 % 0 % 1012,7 hPa 0,0 l/m 4,8 km/h (1 Bft) SW 225 0 min 0,0 UV-I 9,2 C 12,2 C 8,0 km/h (2 Bft)
15.09.2012 03:30 12,3 C 20,8 C 13,0 C 12,2 C 12,1 C 0,0 C 81 % 84 % 0 % 1012,7 hPa 0,0 l/m 5,0 km/h (1 Bft) W-SW 247 0 min 0,0 UV-I 9,1 C 12,1 C 5,5 km/h (1 Bft)
15.09.2012 03:35 12,3 C 20,8 C 12,9 C 12,2 C 12,1 C 0,0 C 81 % 84 % 0 % 1012,7 hPa 0,0 l/m 4,7 km/h (1 Bft) W-SW 247 0 min 0,0 UV-I 9,1 C 12,1 C 5,5 km/h (1 Bft)
15.09.2012 03:40 12,3 C 20,8 C 12,8 C 12,2 C 12,1 C 0,0 C 81 % 84 % 0 % 1012,7 hPa 0,0 l/m 4,7 km/h (1 Bft) N-NW 337 0 min 0,0 UV-I 9,1 C 12,1 C 8,0 km/h (2 Bft)
15.09.2012 03:45 12,3 C 20,8 C 12,8 C 12,3 C 12,2 C 0,0 C 81 % 85 % 0 % 1012,6 hPa 0,0 l/m 5,1 km/h (1 Bft) S-SW 202 0 min 0,0 UV-I 9,1 C 12,2 C 3,7 km/h (1 Bft)
15.09.2012 03:50 12,2 C 20,8 C 12,9 C 12,2 C 12,1 C 0,0 C 81 % 85 % 0 % 1012,6 hPa 0,0 l/m 4,7 km/h (1 Bft) SW 225 0 min 0,0 UV-I 9,0 C 12,1 C 4,5 km/h (1 Bft)
15.09.2012 03:55 12,1 C 20,8 C 12,7 C 12,0 C 11,9 C 0,0 C 81 % 85 % 0 % 1012,6 hPa 0,0 l/m 4,2 km/h (1 Bft) S 180 0 min 0,0 UV-I 8,9 C 11,9 C 6,4 km/h (2 Bft)
15.09.2012 04:00 12,1 C 20,8 C 12,7 C 12,0 C 11,9 C 0,0 C 81 % 85 % 0 % 1012,6 hPa 0,0 l/m 3,7 km/h (1 Bft) W 270 0 min 0,0 UV-I 8,9 C 11,9 C 2,7 km/h (1 Bft)
15.09.2012 04:05 12,0 C 20,7 C 12,7 C 12,0 C 12,0 C 0,0 C 81 % 85 % 0 % 1012,6 hPa 0,0 l/m 3,9 km/h (1 Bft) W-SW 247 0 min 0,0 UV-I 8,8 C 12,0 C 3,2 km/h (1 Bft)
15.09.2012 04:10 12,0 C 20,7 C 12,7 C 12,0 C 12,0 C 0,0 C 81 % 85 % 0 % 1012,6 hPa 0,0 l/m 3,5 km/h (1 Bft) W-SW 247 0 min 0,0 UV-I 8,8 C 12,0 C 5,8 km/h (2 Bft)
15.09.2012 04:15 11,9 C 20,7 C 12,7 C 11,9 C 11,8 C 0,0 C 81 % 85 % 0 % 1012,6 hPa 0,0 l/m 3,1 km/h (1 Bft) W-SW 247 0 min 0,0 UV-I 8,7 C 11,8 C 2,3 km/h (1 Bft)
15.09.2012 04:20 11,8 C 20,7 C 12,6 C 11,7 C 11,6 C 0,0 C 81 % 85 % 0 % 1012,6 hPa 0,0 l/m 2,7 km/h (1 Bft) SW 225 0 min 0,0 UV-I 8,6 C 11,6 C 3,2 km/h (1 Bft)
15.09.2012 04:25 11,7 C 20,7 C 12,4 C 11,6 C 11,3 C 0,0 C 81 % 85 % 0 % 1012,5 hPa 0,0 l/m 2,7 km/h (1 Bft) W-SW 247 0 min 0,0 UV-I 8,5 C 11,3 C 5,0 km/h (1 Bft)
15.09.2012 04:30 11,7 C 20,7 C 12,4 C 11,6 C 11,3 C 0,0 C 82 % 85 % 0 % 1012,5 hPa 0,0 l/m 2,9 km/h (1 Bft) S-SW 202 0 min 0,0 UV-I 8,7 C 11,3 C 1,6 km/h (1 Bft)
15.09.2012 04:35 11,5 C 20,8 C 12,4 C 11,4 C 11,1 C 0,0 C 82 % 85 % 0 % 1012,5 hPa 0,0 l/m 2,7 km/h (1 Bft) SW 225 0 min 0,0 UV-I 8,5 C 11,1 C 3,1 km/h (1 Bft)
15.09.2012 04:40 11,5 C 20,7 C 12,3 C 11,4 C 11,1 C 0,0 C 82 % 85 % 0 % 1012,5 hPa 0,0 l/m 2,9 km/h (1 Bft) W-SW 247 0 min 0,0 UV-I 8,5 C 11,1 C 4,8 km/h (1 Bft)
15.09.2012 04:45 11,2 C 20,7 C 12,2 C 11,2 C 11,1 C 0,0 C 82 % 85 % 0 % 1012,6 hPa 0,0 l/m 3,9 km/h (1 Bft) O 90 0 min 0,0 UV-I 8,2 C 11,1 C 5,3 km/h (1 Bft)
15.09.2012 04:50 11,3 C 20,7 C 12,3 C 11,2 C 11,1 C 0,0 C 82 % 85 % 0 % 1012,6 hPa 0,0 l/m 4,2 km/h (1 Bft) S-SW 202 0 min 0,0 UV-I 8,3 C 11,1 C 7,2 km/h (2 Bft)
15.09.2012 04:55 11,1 C 20,7 C 12,3 C 11,2 C 11,2 C 0,1 C 82 % 85 % 0 % 1012,6 hPa 0,0 l/m 4,0 km/h (1 Bft) SW 225 0 min 0,0 UV-I 8,1 C 11,2 C 4,3 km/h (1 Bft)
15.09.2012 05:00 11,1 C 20,7 C 12,3 C 11,3 C 11,3 C 0,2 C 83 % 85 % 0 % 1012,6 hPa 0,0 l/m 4,2 km/h (1 Bft) W-SW 247 0 min 0,0 UV-I 8,3 C 11,3 C 3,7 km/h (1 Bft)
15.09.2012 05:05 11,1 C 20,7 C 12,3 C 11,5 C 11,5 C 0,4 C 83 % 85 % 0 % 1012,6 hPa 0,0 l/m 3,9 km/h (1 Bft) W-SW 247 0 min 0,0 UV-I 8,3 C 11,5 C 3,9 km/h (1 Bft)
15.09.2012 05:10 11,1 C 20,7 C 12,2 C 11,5 C 11,5 C 0,4 C 83 % 85 % 0 % 1012,6 hPa 0,0 l/m 4,0 km/h (1 Bft) W-SW 247 0 min 0,0 UV-I 8,3 C 11,5 C 3,9 km/h (1 Bft)
15.09.2012 05:15 11,1 C 20,7 C 12,2 C 11,4 C 11,4 C 0,3 C 83 % 86 % 0 % 1012,6 hPa 0,0 l/m 5,1 km/h (1 Bft) SW 225 0 min 0,0 UV-I 8,3 C 11,4 C 7,1 km/h (2 Bft)
15.09.2012 05:20 11,2 C 20,7 C 12,2 C 11,3 C 11,3 C 0,1 C 83 % 86 % 0 % 1012,6 hPa 0,0 l/m 5,6 km/h (1 Bft) W-SW 247 0 min 0,0 UV-I 8,4 C 11,3 C 8,4 km/h (2 Bft)
15.09.2012 05:25 11,2 C 20,7 C 12,2 C 11,6 C 11,6 C 0,4 C 83 % 86 % 0 % 1012,7 hPa 0,0 l/m 5,5 km/h (1 Bft) SW 225 0 min 0,0 UV-I 8,4 C 11,6 C 8,4 km/h (2 Bft)
15.09.2012 05:30 11,3 C 20,7 C 12,3 C 11,7 C 11,7 C 0,4 C 83 % 86 % 0 % 1012,7 hPa 0,0 l/m 5,1 km/h (1 Bft) W-SW 247 0 min 0,0 UV-I 8,5 C 11,7 C 6,1 km/h (2 Bft)
15.09.2012 05:35 11,4 C 20,7 C 12,3 C 11,8 C 11,8 C 0,4 C 83 % 86 % 0 % 1012,7 hPa 0,0 l/m 5,6 km/h (1 Bft) W 270 0 min 0,0 UV-I 8,6 C 11,8 C 7,6 km/h (2 Bft)
15.09.2012 05:40 11,4 C 20,7 C 12,3 C 11,9 C 11,9 C 0,5 C 82 % 86 % 0 % 1012,7 hPa 0,0 l/m 6,0 km/h (2 Bft) SW 225 0 min 0,0 UV-I 8,4 C 11,9 C 7,4 km/h (2 Bft)
15.09.2012 05:45 11,6 C 20,6 C 12,4 C 11,9 C 11,9 C 0,3 C 82 % 85 % 0 % 1012,6 hPa 0,0 l/m 6,4 km/h (2 Bft) S 180 0 min 0,0 UV-I 8,6 C 11,9 C 6,6 km/h (2 Bft)
15.09.2012 05:50 11,6 C 20,6 C 12,4 C 12,1 C 12,1 C 0,5 C 82 % 85 % 0 % 1012,6 hPa 0,0 l/m 6,6 km/h (2 Bft) W-SW 247 0 min 0,0 UV-I 8,6 C 12,1 C 15,1 km/h (3 Bft)
15.09.2012 05:55 11,7 C 20,6 C 12,4 C 12,2 C 12,2 C 0,5 C 82 % 85 % 0 % 1012,6 hPa 0,0 l/m 6,1 km/h (2 Bft) W 270 0 min 0,0 UV-I 8,7 C 12,2 C 8,4 km/h (2 Bft)
15.09.2012 06:00 11,8 C 20,6 C 12,4 C 12,3 C 12,3 C 0,5 C 82 % 85 % 0 % 1012,6 hPa 0,0 l/m 5,6 km/h (1 Bft) W-NW 292 0 min 0,0 UV-I 8,8 C 12,3 C 6,4 km/h (2 Bft)
15.09.2012 06:05 11,9 C 20,6 C 12,4 C 12,4 C 12,4 C 0,5 C 82 % 85 % 0 % 1012,8 hPa 0,0 l/m 5,1 km/h (1 Bft) O-SO 112 0 min 0,0 UV-I 8,9 C 12,4 C 5,6 km/h (1 Bft)
15.09.2012 06:10 11,9 C 20,6 C 12,4 C 12,4 C 12,4 C 0,5 C 82 % 85 % 0 % 1012,8 hPa 0,0 l/m 5,0 km/h (1 Bft) S-SW 202 0 min 0,0 UV-I 8,9 C 12,4 C 5,5 km/h (1 Bft)
15.09.2012 06:15 11,9 C 20,6 C 12,5 C 12,4 C 12,4 C 0,5 C 82 % 85 % 0 % 1012,8 hPa 0,0 l/m 5,3 km/h (1 Bft) S 180 0 min 0,0 UV-I 8,9 C 12,4 C 4,2 km/h (1 Bft)
15.09.2012 06:20 11,9 C 20,6 C 12,4 C 12,4 C 12,4 C 0,5 C 82 % 85 % 0 % 1012,8 hPa 0,0 l/m 5,0 km/h (1 Bft) W 270 0 min 0,0 UV-I 8,9 C 12,4 C 4,7 km/h (1 Bft)
15.09.2012 06:25 11,9 C 20,6 C 12,4 C 12,3 C 12,3 C 0,4 C 82 % 85 % 0 % 1013,3 hPa 0,0 l/m 4,3 km/h (1 Bft) SW 225 0 min 0,0 UV-I 8,9 C 12,3 C 2,9 km/h (1 Bft)
15.09.2012 06:30 11,8 C 20,6 C 12,5 C 12,2 C 12,2 C 0,4 C 82 % 85 % 0 % 1013,3 hPa 0,0 l/m 3,9 km/h (1 Bft) SW 225 0 min 0,0 UV-I 8,8 C 12,2 C 3,9 km/h (1 Bft)
15.09.2012 06:35 11,7 C 20,6 C 12,5 C 12,1 C 12,1 C 0,4 C 82 % 86 % 0 % 1013,3 hPa 0,0 l/m 3,7 km/h (1 Bft) W-SW 247 0 min 0,0 UV-I 8,7 C 12,1 C 4,8 km/h (1 Bft)
15.09.2012 06:46 11,7 C 20,6 C 12,4 C 12,1 C 12,1 C 0,4 C 82 % 86 % 0 % 1013,4 hPa 0,0 l/m 4,0 km/h (1 Bft) N 0 0 min 0,0 UV-I 8,7 C 12,1 C 6,1 km/h (2 Bft)
15.09.2012 06:55 11,6 C 20,6 C 12,4 C 12,1 C 12,1 C 0,5 C 82 % 86 % 0 % 1013,4 hPa 0,0 l/m 3,4 km/h (1 Bft) SW 225 0 min 0,0 UV-I 8,6 C 12,1 C 4,3 km/h (1 Bft)
15.09.2012 07:00 11,6 C 20,6 C 12,4 C 12,1 C 12,1 C 0,5 C 82 % 86 % 13 % 1013,4 hPa 0,0 l/m 3,5 km/h (1 Bft) S 180 5 min 0,0 UV-I 8,6 C 12,1 C 5,3 km/h (1 Bft)
15.09.2012 07:05 11,6 C 20,6 C 12,4 C 12,1 C 12,1 C 0,5 C 82 % 86 % 13 % 1013,5 hPa 0,0 l/m 4,7 km/h (1 Bft) W-SW 247 5 min 0,0 UV-I 8,6 C 12,1 C 4,7 km/h (1 Bft)
15.09.2012 07:10 11,6 C 20,6 C 12,4 C 12,2 C 12,2 C 0,6 C 82 % 86 % 16 % 1013,5 hPa 0,0 l/m 5,0 km/h (1 Bft) S 180 5 min 0,0 UV-I 8,6 C 12,2 C 6,4 km/h (2 Bft)
15.09.2012 07:15 11,6 C 20,6 C 12,4 C 12,3 C 12,3 C 0,7 C 82 % 86 % 18 % 1013,5 hPa 0,0 l/m 4,7 km/h (1 Bft) SW 225 5 min 0,0 UV-I 8,6 C 12,3 C 6,8 km/h (2 Bft)
15.09.2012 07:20 11,7 C 20,5 C 12,5 C 12,4 C 12,4 C 0,7 C 82 % 86 % 18 % 1013,5 hPa 0,0 l/m 5,1 km/h (1 Bft) S 180 0 min 0,0 UV-I 8,7 C 12,4 C 4,8 km/h (1 Bft)
15.09.2012 07:25 11,8 C 20,5 C 12,4 C 12,4 C 12,4 C 0,6 C 82 % 86 % 16 % 1013,9 hPa 0,0 l/m 5,0 km/h (1 Bft) NW 315 0 min 0,0 UV-I 8,8 C 12,4 C 6,4 km/h (2 Bft)
15.09.2012 07:30 11,9 C 20,5 C 12,5 C 12,5 C 12,5 C 0,6 C 82 % 86 % 16 % 1013,9 hPa 0,0 l/m 4,5 km/h (1 Bft) W-SW 247 0 min 0,0 UV-I 8,9 C 12,5 C 4,5 km/h (1 Bft)
15.09.2012 07:35 11,9 C 20,5 C 12,5 C 12,6 C 12,6 C 0,7 C 82 % 86 % 18 % 1013,9 hPa 0,0 l/m 4,8 km/h (1 Bft) N-NW 337 0 min 0,0 UV-I 8,9 C 12,6 C 4,8 km/h (1 Bft)
15.09.2012 07:40 11,9 C 20,5 C 12,5 C 12,6 C 12,6 C 0,7 C 82 % 85 % 18 % 1013,9 hPa 0,0 l/m 4,7 km/h (1 Bft) W-SW 247 0 min 0,0 UV-I 8,9 C 12,6 C 4,5 km/h (1 Bft)
15.09.2012 07:45 12,0 C 20,5 C 12,7 C 12,7 C 12,7 C 0,7 C 81 % 85 % 18 % 1014,2 hPa 0,0 l/m 4,8 km/h (1 Bft) SW 225 0 min 0,0 UV-I 8,8 C 12,7 C 4,7 km/h (1 Bft)
15.09.2012 07:50 12,1 C 20,5 C 12,7 C 12,8 C 12,8 C 0,7 C 81 % 85 % 18 % 1014,2 hPa 0,0 l/m 4,8 km/h (1 Bft) S 180 0 min 0,0 UV-I 8,9 C 12,8 C 4,7 km/h (1 Bft)
15.09.2012 07:55 12,1 C 20,5 C 12,7 C 12,9 C 12,9 C 0,8 C 81 % 85 % 21 % 1014,2 hPa 0,0 l/m 5,3 km/h (1 Bft) W-SW 247 0 min 0,0 UV-I 8,9 C 12,9 C 5,8 km/h (2 Bft)
15.09.2012 08:00 12,1 C 20,5 C 12,6 C 12,9 C 12,9 C 0,8 C 81 % 85 % 21 % 1014,2 hPa 0,0 l/m 5,5 km/h (1 Bft) SW 225 0 min 0,0 UV-I 8,9 C 12,9 C 4,8 km/h (1 Bft)
15.09.2012 08:05 12,3 C 20,5 C 12,7 C 13,0 C 13,0 C 0,7 C 81 % 85 % 18 % 1014,4 hPa 0,0 l/m 5,0 km/h (1 Bft) W-SW 247 0 min 0,0 UV-I 9,1 C 13,0 C 5,0 km/h (1 Bft)
15.09.2012 08:10 12,2 C 20,5 C 12,7 C 13,1 C 13,1 C 0,9 C 81 % 85 % 24 % 1014,4 hPa 0,0 l/m 5,0 km/h (1 Bft) W-SW 247 0 min 0,0 UV-I 9,0 C 13,1 C 5,1 km/h (1 Bft)
15.09.2012 08:15 12,3 C 20,5 C 12,9 C 13,2 C 13,2 C 0,9 C 81 % 85 % 24 % 1014,4 hPa 0,0 l/m 4,8 km/h (1 Bft) S-SW 202 0 min 0,0 UV-I 9,1 C 13,2 C 3,7 km/h (1 Bft)
15.09.2012 08:20 12,4 C 20,5 C 12,9 C 13,3 C 13,3 C 0,9 C 81 % 85 % 24 % 1014,4 hPa 0,0 l/m 4,7 km/h (1 Bft) W-SW 247 0 min 0,0 UV-I 9,2 C 13,3 C 5,3 km/h (1 Bft)
15.09.2012 08:25 12,5 C 20,5 C 12,9 C 13,5 C 13,5 C 1,0 C 81 % 85 % 26 % 1014,6 hPa 0,0 l/m 5,0 km/h (1 Bft) W-SW 247 0 min 0,0 UV-I 9,3 C 13,5 C 6,0 km/h (2 Bft)
15.09.2012 08:30 12,4 C 20,5 C 12,9 C 13,7 C 13,7 C 1,3 C 81 % 85 % 34 % 1014,6 hPa 0,0 l/m 5,0 km/h (1 Bft) W-SW 247 0 min 0,0 UV-I 9,2 C 13,7 C 5,6 km/h (1 Bft)
15.09.2012 08:35 12,5 C 20,5 C 13,1 C 14,0 C 14,0 C 1,5 C 81 % 85 % 39 % 1014,6 hPa 0,0 l/m 5,1 km/h (1 Bft) W-SW 247 0 min 0,0 UV-I 9,3 C 14,0 C 7,2 km/h (2 Bft)
15.09.2012 08:40 12,6 C 20,5 C 13,1 C 14,0 C 14,0 C 1,4 C 81 % 85 % 37 % 1014,6 hPa 0,0 l/m 5,0 km/h (1 Bft) SW 225 0 min 0,0 UV-I 9,4 C 14,0 C 8,9 km/h (2 Bft)
15.09.2012 08:45 12,7 C 20,5 C 13,1 C 14,0 C 14,0 C 1,3 C 81 % 85 % 34 % 1014,8 hPa 0,0 l/m 4,3 km/h (1 Bft) W-SW 247 0 min 0,1 UV-I 9,5 C 14,0 C 3,5 km/h (1 Bft)
15.09.2012 08:50 12,6 C 20,5 C 13,0 C 14,0 C 14,0 C 1,4 C 81 % 85 % 37 % 1014,8 hPa 0,0 l/m 4,0 km/h (1 Bft) N-NW 337 0 min 0,1 UV-I 9,4 C 14,0 C 3,7 km/h (1 Bft)
15.09.2012 08:55 12,7 C 20,5 C 13,1 C 14,0 C 14,0 C 1,3 C 81 % 85 % 34 % 1014,8 hPa 0,0 l/m 3,2 km/h (1 Bft) W-SW 247 0 min 0,1 UV-I 9,5 C 14,0 C 5,8 km/h (2 Bft)
15.09.2012 09:00 12,7 C 20,5 C 13,1 C 14,0 C 14,0 C 1,3 C 81 % 85 % 34 % 1014,8 hPa 0,0 l/m 3,4 km/h (1 Bft) W 270 0 min 0,2 UV-I 9,5 C 14,0 C 7,7 km/h (2 Bft)
15.09.2012 09:05 12,7 C 20,5 C 13,2 C 14,1 C 14,1 C 1,4 C 81 % 85 % 37 % 1014,9 hPa 0,0 l/m 3,4 km/h (1 Bft) SW 225 0 min 0,2 UV-I 9,5 C 14,1 C 7,7 km/h (2 Bft)
15.09.2012 09:10 12,8 C 20,5 C 13,2 C 14,1 C 14,1 C 1,3 C 81 % 85 % 34 % 1014,9 hPa 0,0 l/m 3,4 km/h (1 Bft) S 180 0 min 0,2 UV-I 9,6 C 14,1 C 3,2 km/h (1 Bft)
15.09.2012 09:15 12,9 C 20,5 C 13,3 C 14,5 C 14,5 C 1,6 C 81 % 85 % 42 % 1014,9 hPa 0,0 l/m 4,8 km/h (1 Bft) SW 225 0 min 0,3 UV-I 9,7 C 14,5 C 5,0 km/h (1 Bft)
15.09.2012 09:20 12,9 C 20,5 C 13,5 C 14,7 C 14,7 C 1,8 C 81 % 85 % 47 % 1014,9 hPa 0,0 l/m 5,1 km/h (1 Bft) W-SW 247 0 min 0,3 UV-I 9,7 C 14,7 C 6,9 km/h (2 Bft)
15.09.2012 09:25 13,1 C 20,5 C 13,5 C 14,9 C 14,9 C 1,8 C 81 % 85 % 47 % 1015,4 hPa 0,0 l/m 4,7 km/h (1 Bft) SW 225 0 min 0,3 UV-I 9,9 C 14,9 C 9,2 km/h (2 Bft)
15.09.2012 09:30 13,2 C 20,3 C 13,7 C 14,9 C 14,9 C 1,7 C 80 % 85 % 45 % 1015,4 hPa 0,0 l/m 5,1 km/h (1 Bft) W-SW 247 0 min 0,3 UV-I 9,8 C 14,9 C 5,6 km/h (1 Bft)
15.09.2012 09:35 13,4 C 20,3 C 13,7 C 14,9 C 14,9 C 1,5 C 80 % 84 % 39 % 1015,4 hPa 0,0 l/m 6,1 km/h (2 Bft) SW 225 0 min 0,3 UV-I 10,0 C 14,9 C 7,1 km/h (2 Bft)
15.09.2012 09:40 13,5 C 20,3 C 13,7 C 14,9 C 14,9 C 1,4 C 79 % 84 % 37 % 1015,4 hPa 0,0 l/m 6,4 km/h (2 Bft) W-SW 247 0 min 0,3 UV-I 9,9 C 14,9 C 6,0 km/h (2 Bft)
15.09.2012 09:45 13,6 C 20,3 C 13,8 C 15,0 C 15,0 C 1,4 C 79 % 84 % 37 % 1015,3 hPa 0,0 l/m 6,0 km/h (2 Bft) W-SW 247 0 min 0,5 UV-I 10,0 C 15,0 C 5,3 km/h (1 Bft)
15.09.2012 09:50 13,6 C 20,3 C 13,9 C 15,3 C 15,3 C 1,7 C 78 % 83 % 45 % 1015,3 hPa 0,0 l/m 6,0 km/h (2 Bft) W-SW 247 0 min 0,6 UV-I 9,8 C 15,3 C 11,7 km/h (2 Bft)
15.09.2012 09:55 13,8 C 20,3 C 14,1 C 15,4 C 15,4 C 1,6 C 78 % 83 % 42 % 1015,3 hPa 0,0 l/m 6,6 km/h (2 Bft) W-NW 292 0 min 0,7 UV-I 10,0 C 15,4 C 3,9 km/h (1 Bft)
15.09.2012 10:00 13,9 C 20,3 C 14,1 C 15,6 C 15,6 C 1,7 C 78 % 83 % 45 % 1015,3 hPa 0,0 l/m 6,6 km/h (2 Bft) SW 225 0 min 0,7 UV-I 10,1 C 15,6 C 7,4 km/h (2 Bft)
15.09.2012 10:05 13,9 C 20,3 C 14,3 C 15,7 C 15,7 C 1,8 C 77 % 82 % 47 % 1015,7 hPa 0,0 l/m 6,1 km/h (2 Bft) W 270 0 min 0,7 UV-I 9,9 C 15,7 C 8,5 km/h (2 Bft)
15.09.2012 10:10 14,0 C 20,3 C 14,3 C 15,8 C 15,8 C 1,8 C 77 % 82 % 47 % 1015,7 hPa 0,0 l/m 6,6 km/h (2 Bft) SW 225 0 min 0,7 UV-I 10,0 C 15,8 C 7,6 km/h (2 Bft)
15.09.2012 10:15 14,1 C 20,3 C 14,4 C 15,9 C 15,9 C 1,8 C 77 % 82 % 47 % 1015,7 hPa 0,0 l/m 5,8 km/h (2 Bft) SW 225 0 min 0,7 UV-I 10,1 C 15,9 C 5,3 km/h (1 Bft)
15.09.2012 10:20 14,2 C 20,3 C 14,4 C 15,9 C 15,9 C 1,7 C 77 % 82 % 45 % 1015,7 hPa 0,0 l/m 5,3 km/h (1 Bft) W 270 0 min 0,6 UV-I 10,2 C 15,9 C 4,5 km/h (1 Bft)
15.09.2012 10:25 14,3 C 20,3 C 14,5 C 16,0 C 16,0 C 1,7 C 77 % 82 % 45 % 1015,9 hPa 0,0 l/m 4,2 km/h (1 Bft) SW 225 0 min 0,5 UV-I 10,3 C 16,0 C 5,6 km/h (1 Bft)
15.09.2012 10:30 14,4 C 20,3 C 14,7 C 16,3 C 16,3 C 1,9 C 77 % 82 % 50 % 1015,9 hPa 0,0 l/m 4,5 km/h (1 Bft) S 180 0 min 0,9 UV-I 10,4 C 16,3 C 8,2 km/h (2 Bft)
15.09.2012 10:35 14,5 C 20,3 C 14,7 C 16,5 C 16,5 C 2,0 C 77 % 82 % 53 % 1015,9 hPa 0,0 l/m 5,5 km/h (1 Bft) SW 225 0 min 0,9 UV-I 10,5 C 16,5 C 12,4 km/h (3 Bft)
15.09.2012 10:40 14,7 C 20,3 C 14,8 C 16,6 C 16,6 C 1,9 C 76 % 81 % 50 % 1015,9 hPa 0,0 l/m 5,8 km/h (2 Bft) SW 225 0 min 1,1 UV-I 10,5 C 16,6 C 13,8 km/h (3 Bft)
15.09.2012 10:45 14,7 C 20,3 C 14,7 C 16,3 C 16,3 C 1,6 C 75 % 80 % 42 % 1015,8 hPa 0,0 l/m 7,6 km/h (2 Bft) W-SW 247 0 min 0,8 UV-I 10,3 C 16,3 C 8,4 km/h (2 Bft)
15.09.2012 10:50 14,7 C 20,3 C 14,8 C 16,3 C 16,3 C 1,6 C 75 % 80 % 42 % 1015,8 hPa 0,0 l/m 7,4 km/h (2 Bft) W-NW 292 0 min 0,9 UV-I 10,3 C 16,3 C 5,1 km/h (1 Bft)
15.09.2012 10:55 14,8 C 20,3 C 14,8 C 16,5 C 16,5 C 1,7 C 75 % 80 % 45 % 1015,8 hPa 0,0 l/m 6,3 km/h (2 Bft) S 180 0 min 0,9 UV-I 10,4 C 16,5 C 11,7 km/h (2 Bft)
15.09.2012 11:00 14,8 C 20,3 C 14,8 C 16,5 C 16,5 C 1,7 C 75 % 80 % 45 % 1015,8 hPa 0,0 l/m 6,9 km/h (2 Bft) S-SW 202 0 min 1,1 UV-I 10,4 C 16,5 C 9,8 km/h (2 Bft)
15.09.2012 11:05 14,8 C 20,3 C 14,8 C 16,4 C 16,4 C 1,6 C 75 % 80 % 42 % 1015,9 hPa 0,0 l/m 7,4 km/h (2 Bft) W-SW 247 0 min 1,0 UV-I 10,4 C 16,4 C 4,5 km/h (1 Bft)
15.09.2012 11:10 14,9 C 20,3 C 14,9 C 16,6 C 16,6 C 1,7 C 74 % 79 % 45 % 1015,9 hPa 0,0 l/m 6,4 km/h (2 Bft) S-SW 202 0 min 1,0 UV-I 10,3 C 16,6 C 8,4 km/h (2 Bft)
15.09.2012 11:15 15,1 C 20,3 C 14,9 C 16,6 C 16,6 C 1,5 C 74 % 79 % 39 % 1015,9 hPa 0,0 l/m 6,0 km/h (2 Bft) NW 315 0 min 1,1 UV-I 10,5 C 16,6 C 6,6 km/h (2 Bft)
15.09.2012 11:20 15,1 C 20,3 C 15,0 C 16,5 C 16,5 C 1,4 C 74 % 79 % 37 % 1015,9 hPa 0,0 l/m 6,3 km/h (2 Bft) S-SW 202 0 min 0,7 UV-I 10,5 C 16,5 C 9,5 km/h (2 Bft)
15.09.2012 11:25 15,0 C 20,3 C 15,1 C 16,5 C 16,5 C 1,5 C 74 % 79 % 39 % 1016,0 hPa 0,0 l/m 5,8 km/h (2 Bft) S 180 0 min 0,8 UV-I 10,4 C 16,5 C 7,2 km/h (2 Bft)
15.09.2012 11:30 15,1 C 20,3 C 15,1 C 16,4 C 16,4 C 1,3 C 74 % 79 % 34 % 1016,0 hPa 0,0 l/m 6,1 km/h (2 Bft) SW 225 0 min 0,7 UV-I 10,5 C 16,4 C 8,0 km/h (2 Bft)
15.09.2012 11:35 15,1 C 20,3 C 15,1 C 16,4 C 16,4 C 1,3 C 73 % 78 % 34 % 1016,0 hPa 0,0 l/m 7,1 km/h (2 Bft) W-SW 247 0 min 0,9 UV-I 10,3 C 16,4 C 3,5 km/h (1 Bft)
15.09.2012 11:40 15,1 C 20,3 C 15,1 C 16,6 C 16,6 C 1,5 C 74 % 78 % 39 % 1016,0 hPa 0,0 l/m 7,1 km/h (2 Bft) W-SW 247 0 min 1,3 UV-I 10,5 C 16,6 C 7,6 km/h (2 Bft)
15.09.2012 11:45 15,2 C 20,3 C 15,2 C 16,7 C 16,7 C 1,5 C 73 % 78 % 39 % 1016,2 hPa 0,0 l/m 6,4 km/h (2 Bft) W-SW 247 0 min 1,2 UV-I 10,4 C 16,7 C 12,9 km/h (3 Bft)
15.09.2012 11:50 15,2 C 20,3 C 15,1 C 16,5 C 16,5 C 1,3 C 73 % 78 % 34 % 1016,2 hPa 0,0 l/m 6,4 km/h (2 Bft) W-SW 247 0 min 0,7 UV-I 10,4 C 16,5 C 6,4 km/h (2 Bft)
15.09.2012 11:55 15,2 C 20,3 C 14,9 C 16,1 C 16,1 C 0,9 C 73 % 78 % 24 % 1016,2 hPa 0,0 l/m 7,2 km/h (2 Bft) W-SW 247 0 min 0,4 UV-I 10,4 C 16,1 C 7,2 km/h (2 Bft)
15.09.2012 12:00 15,1 C 20,3 C 14,9 C 15,9 C 15,9 C 0,8 C 73 % 78 % 21 % 1016,2 hPa 0,0 l/m 7,4 km/h (2 Bft) W-SW 247 0 min 0,4 UV-I 10,3 C 15,9 C 10,0 km/h (2 Bft)
15.09.2012 12:05 15,1 C 20,3 C 14,8 C 15,7 C 15,7 C 0,6 C 73 % 79 % 16 % 1016,5 hPa 0,0 l/m 6,6 km/h (2 Bft) W-SW 247 0 min 0,3 UV-I 10,3 C 15,7 C 7,9 km/h (2 Bft)
15.09.2012 12:07 15,0 C 20,3 C 14,8 C 15,6 C 15,6 C 0,6 C 74 % 79 % 16 % 1016,5 hPa 0,0 l/m 6,3 km/h (2 Bft) W-SW 247 0 min 0,3 UV-I 10,4 C 15,6 C 5,8 km/h (2 Bft)
15.09.2012 12:12 15,1 C 20,3 C 14,9 C 15,6 C 15,6 C 0,5 C 74 % 79 % 13 % 1016,5 hPa 0,0 l/m 6,4 km/h (2 Bft) W 270 0 min 0,4 UV-I 10,5 C 15,6 C 8,0 km/h (2 Bft)
15.09.2012 12:17 15,0 C 20,3 C 14,9 C 15,7 C 15,7 C 0,7 C 74 % 79 % 18 % 1016,5 hPa 0,0 l/m 6,6 km/h (2 Bft) SW 225 0 min 0,4 UV-I 10,4 C 15,7 C 9,0 km/h (2 Bft)
15.09.2012 12:22 15,1 C 20,3 C 14,9 C 15,9 C 15,9 C 0,8 C 73 % 79 % 21 % 1016,6 hPa 0,0 l/m 6,1 km/h (2 Bft) W-SW 247 0 min 0,6 UV-I 10,3 C 15,9 C 8,2 km/h (2 Bft)
15.09.2012 12:27 15,3 C 20,4 C 15,0 C 16,1 C 16,1 C 0,8 C 73 % 79 % 21 % 1016,6 hPa 0,0 l/m 6,4 km/h (2 Bft) W-NW 292 0 min 0,9 UV-I 10,5 C 16,1 C 5,8 km/h (2 Bft)
15.09.2012 12:30 15,3 C 20,4 C 15,0 C 16,1 C 16,1 C 0,8 C 73 % 79 % 21 % 1016,6 hPa 0,0 l/m 6,4 km/h (2 Bft) W-NW 292 0 min 0,9 UV-I 10,5 C 16,1 C 5,8 km/h (2 Bft)
15.09.2012 12:35 15,2 C 20,4 C 15,1 C 16,2 C 16,2 C 1,0 C 72 % 78 % 26 % 1016,6 hPa 0,0 l/m 6,9 km/h (2 Bft) S 180 0 min 0,8 UV-I 10,2 C 16,2 C 6,9 km/h (2 Bft)
15.09.2012 12:42 15,3 C 20,4 C 15,0 C 16,3 C 16,3 C 1,0 C 71 % 77 % 26 % 1016,6 hPa 0,0 l/m 7,7 km/h (2 Bft) N 0 0 min 0,8 UV-I 10,1 C 16,3 C 7,1 km/h (2 Bft)
15.09.2012 12:55 15,5 C 20,4 C 15,2 C 16,6 C 16,6 C 1,1 C 71 % 77 % 29 % 1016,6 hPa 0,0 l/m 6,3 km/h (2 Bft) S-SW 202 0 min 0,8 UV-I 10,3 C 16,6 C 7,4 km/h (2 Bft)
15.09.2012 13:00 15,5 C 20,4 C 15,2 C 16,6 C 16,6 C 1,1 C 70 % 77 % 29 % 1016,6 hPa 0,0 l/m 7,4 km/h (2 Bft) SW 225 0 min 1,0 UV-I 10,1 C 16,6 C 7,2 km/h (2 Bft)
15.09.2012 13:05 15,5 C 20,4 C 15,2 C 16,6 C 16,6 C 1,1 C 71 % 77 % 29 % 1016,7 hPa 0,0 l/m 6,1 km/h (2 Bft) SW 225 0 min 0,7 UV-I 10,3 C 16,6 C 11,1 km/h (2 Bft)
15.09.2012 13:10 15,5 C 20,4 C 15,3 C 16,5 C 16,5 C 1,0 C 71 % 77 % 26 % 1016,7 hPa 0,0 l/m 6,0 km/h (2 Bft) NW 315 0 min 0,5 UV-I 10,3 C 16,5 C 8,5 km/h (2 Bft)
15.09.2012 13:15 15,5 C 20,4 C 15,2 C 16,4 C 16,4 C 0,9 C 70 % 77 % 24 % 1016,7 hPa 0,0 l/m 6,3 km/h (2 Bft) W 270 0 min 0,6 UV-I 10,1 C 16,4 C 4,7 km/h (1 Bft)
15.09.2012 13:20 15,6 C 20,4 C 15,2 C 16,5 C 16,5 C 0,9 C 71 % 77 % 24 % 1016,7 hPa 0,0 l/m 6,1 km/h (2 Bft) W-SW 247 0 min 0,7 UV-I 10,4 C 16,5 C 7,4 km/h (2 Bft)
15.09.2012 13:25 15,6 C 20,4 C 15,5 C 16,7 C 16,7 C 1,1 C 70 % 77 % 29 % 1016,9 hPa 0,0 l/m 6,6 km/h (2 Bft) W-SW 247 0 min 0,9 UV-I 10,1 C 16,7 C 7,7 km/h (2 Bft)
15.09.2012 13:30 15,7 C 20,4 C 15,6 C 17,0 C 17,0 C 1,3 C 70 % 77 % 34 % 1016,9 hPa 0,0 l/m 6,6 km/h (2 Bft) W-SW 247 0 min 1,3 UV-I 10,2 C 17,0 C 8,4 km/h (2 Bft)
15.09.2012 13:35 15,8 C 20,4 C 15,7 C 17,6 C 17,6 C 1,8 C 69 % 76 % 47 % 1016,9 hPa 0,0 l/m 6,8 km/h (2 Bft) S-SW 202 0 min 1,7 UV-I 10,1 C 17,6 C 7,6 km/h (2 Bft)
15.09.2012 13:40 15,9 C 20,4 C 15,9 C 17,7 C 17,7 C 1,8 C 68 % 74 % 47 % 1016,9 hPa 0,0 l/m 7,4 km/h (2 Bft) SW 225 0 min 1,5 UV-I 10,0 C 17,7 C 13,2 km/h (3 Bft)
15.09.2012 13:45 15,8 C 20,4 C 15,6 C 17,3 C 17,3 C 1,5 C 68 % 75 % 39 % 1016,9 hPa 0,0 l/m 8,0 km/h (2 Bft) W-SW 247 0 min 1,1 UV-I 9,9 C 17,3 C 11,4 km/h (2 Bft)
15.09.2012 13:50 15,9 C 20,4 C 15,7 C 17,0 C 17,0 C 1,1 C 68 % 75 % 29 % 1016,9 hPa 0,0 l/m 7,7 km/h (2 Bft) S-SW 202 0 min 1,1 UV-I 10,0 C 17,0 C 7,7 km/h (2 Bft)
15.09.2012 13:55 15,8 C 20,4 C 15,5 C 16,6 C 16,6 C 0,8 C 69 % 75 % 21 % 1016,9 hPa 0,0 l/m 6,1 km/h (2 Bft) SW 225 0 min 0,3 UV-I 10,1 C 16,6 C 5,1 km/h (1 Bft)
15.09.2012 14:00 15,7 C 20,4 C 15,5 C 16,5 C 16,5 C 0,8 C 69 % 75 % 21 % 1016,9 hPa 0,0 l/m 5,8 km/h (2 Bft) W 270 0 min 0,2 UV-I 10,0 C 16,5 C 4,3 km/h (1 Bft)
15.09.2012 14:05 15,7 C 20,4 C 15,5 C 16,4 C 16,4 C 0,7 C 70 % 76 % 18 % 1017,1 hPa 0,0 l/m 5,8 km/h (2 Bft) W 270 0 min 0,3 UV-I 10,2 C 16,4 C 5,3 km/h (1 Bft)
15.09.2012 14:10 15,7 C 20,4 C 15,5 C 16,5 C 16,5 C 0,8 C 69 % 76 % 21 % 1017,1 hPa 0,0 l/m 5,0 km/h (1 Bft) W-SW 247 0 min 0,4 UV-I 10,0 C 16,5 C 8,7 km/h (2 Bft)
15.09.2012 14:15 15,7 C 20,4 C 15,5 C 16,7 C 16,7 C 1,0 C 69 % 75 % 26 % 1017,1 hPa 0,0 l/m 6,8 km/h (2 Bft) W-SW 247 0 min 0,6 UV-I 10,0 C 16,7 C 11,4 km/h (2 Bft)
15.09.2012 14:20 15,9 C 20,4 C 15,6 C 16,8 C 16,8 C 0,9 C 68 % 75 % 24 % 1017,1 hPa 0,0 l/m 8,0 km/h (2 Bft) S 180 0 min 1,0 UV-I 10,0 C 16,8 C 9,7 km/h (2 Bft)
15.09.2012 14:25 15,8 C 20,4 C 15,6 C 16,8 C 16,8 C 1,0 C 69 % 75 % 26 % 1016,8 hPa 0,0 l/m 8,2 km/h (2 Bft) W 270 0 min 0,8 UV-I 10,1 C 16,8 C 10,5 km/h (2 Bft)
15.09.2012 14:30 15,8 C 20,5 C 15,5 C 16,7 C 16,7 C 0,9 C 69 % 75 % 24 % 1016,8 hPa 0,0 l/m 7,9 km/h (2 Bft) W-SW 247 0 min 0,4 UV-I 10,1 C 16,7 C 13,2 km/h (3 Bft)
15.09.2012 14:35 15,9 C 20,5 C 15,6 C 16,8 C 16,8 C 0,9 C 69 % 75 % 24 % 1016,8 hPa 0,0 l/m 7,1 km/h (2 Bft) SW 225 0 min 0,5 UV-I 10,2 C 16,8 C 6,1 km/h (2 Bft)
15.09.2012 14:40 16,0 C 20,5 C 15,7 C 17,2 C 17,2 C 1,2 C 69 % 75 % 32 % 1016,8 hPa 0,0 l/m 6,8 km/h (2 Bft) SW 225 0 min 0,9 UV-I 10,3 C 17,2 C 8,2 km/h (2 Bft)
15.09.2012 14:45 16,2 C 20,5 C 16,0 C 17,7 C 17,7 C 1,5 C 68 % 75 % 39 % 1016,9 hPa 0,0 l/m 6,1 km/h (2 Bft) S 180 0 min 0,9 UV-I 10,3 C 17,7 C 2,1 km/h (1 Bft)
15.09.2012 14:50 16,3 C 20,4 C 16,1 C 18,2 C 18,2 C 1,9 C 68 % 74 % 50 % 1016,9 hPa 0,0 l/m 5,5 km/h (1 Bft) SW 225 0 min 1,4 UV-I 10,4 C 18,2 C 7,1 km/h (2 Bft)
15.09.2012 14:55 16,4 C 20,4 C 16,3 C 18,6 C 18,6 C 2,2 C 65 % 72 % 58 % 1016,9 hPa 0,0 l/m 6,3 km/h (2 Bft) W 270 0 min 1,5 UV-I 9,8 C 18,6 C 11,1 km/h (2 Bft)
15.09.2012 15:00 16,5 C 20,4 C 16,4 C 18,7 C 18,7 C 2,2 C 65 % 71 % 58 % 1016,9 hPa 0,0 l/m 7,9 km/h (2 Bft) W-SW 247 0 min 1,5 UV-I 9,9 C 18,7 C 13,5 km/h (3 Bft)
15.09.2012 15:05 16,7 C 20,4 C 16,5 C 19,0 C 19,0 C 2,3 C 64 % 71 % 61 % 1017,2 hPa 0,0 l/m 7,9 km/h (2 Bft) S-SW 202 0 min 1,5 UV-I 9,9 C 19,0 C 14,8 km/h (3 Bft)
15.09.2012 15:10 16,8 C 20,4 C 16,5 C 19,0 C 19,0 C 2,2 C 64 % 71 % 58 % 1017,2 hPa 0,0 l/m 7,7 km/h (2 Bft) W-SW 247 0 min 1,4 UV-I 10,0 C 19,0 C 9,3 km/h (2 Bft)
15.09.2012 15:15 16,8 C 20,4 C 16,6 C 19,2 C 19,2 C 2,4 C 64 % 70 % 63 % 1017,2 hPa 0,0 l/m 6,8 km/h (2 Bft) SW 225 0 min 1,3 UV-I 10,0 C 19,2 C 9,2 km/h (2 Bft)
15.09.2012 15:20 16,8 C 20,4 C 16,6 C 19,2 C 19,2 C 2,4 C 63 % 70 % 63 % 1017,2 hPa 0,0 l/m 7,1 km/h (2 Bft) SW 225 0 min 1,4 UV-I 9,7 C 19,2 C 11,1 km/h (2 Bft)
15.09.2012 15:25 16,8 C 20,4 C 16,7 C 19,0 C 19,0 C 2,2 C 63 % 70 % 58 % 1017,2 hPa 0,0 l/m 8,0 km/h (2 Bft) S-SW 202 0 min 1,4 UV-I 9,7 C 19,0 C 12,9 km/h (3 Bft)
15.09.2012 15:30 16,9 C 20,4 C 16,5 C 18,7 C 18,7 C 1,8 C 64 % 70 % 47 % 1017,2 hPa 0,0 l/m 7,6 km/h (2 Bft) S-SW 202 0 min 1,2 UV-I 10,0 C 18,7 C 3,5 km/h (1 Bft)
15.09.2012 15:35 16,8 C 20,4 C 16,4 C 18,4 C 18,4 C 1,6 C 64 % 70 % 42 % 1017,2 hPa 0,0 l/m 7,2 km/h (2 Bft) SW 225 0 min 1,0 UV-I 10,0 C 18,4 C 6,3 km/h (2 Bft)
15.09.2012 15:40 16,7 C 20,4 C 16,5 C 18,2 C 18,2 C 1,5 C 64 % 70 % 39 % 1017,2 hPa 0,0 l/m 6,8 km/h (2 Bft) W-SW 247 0 min 1,0 UV-I 9,9 C 18,2 C 5,5 km/h (1 Bft)
15.09.2012 15:45 16,7 C 20,4 C 16,4 C 17,9 C 17,9 C 1,2 C 63 % 70 % 32 % 1017,4 hPa 0,0 l/m 7,4 km/h (2 Bft) O-NO 67 0 min 0,7 UV-I 9,6 C 17,9 C 11,7 km/h (2 Bft)
15.09.2012 15:50 16,7 C 20,4 C 16,3 C 17,9 C 17,9 C 1,2 C 63 % 70 % 32 % 1017,4 hPa 0,0 l/m 7,7 km/h (2 Bft) W-SW 247 0 min 0,6 UV-I 9,6 C 17,9 C 6,8 km/h (2 Bft)
15.09.2012 15:55 16,7 C 20,4 C 16,3 C 17,9 C 17,9 C 1,2 C 64 % 70 % 32 % 1017,4 hPa 0,0 l/m 6,4 km/h (2 Bft) W 270 0 min 0,6 UV-I 9,9 C 17,9 C 6,0 km/h (2 Bft)
15.09.2012 16:00 16,7 C 20,5 C 16,4 C 18,0 C 18,0 C 1,3 C 64 % 71 % 34 % 1017,4 hPa 0,0 l/m 5,3 km/h (1 Bft) W 270 0 min 0,7 UV-I 9,9 C 18,0 C 9,3 km/h (2 Bft)
15.09.2012 16:05 16,8 C 20,5 C 16,5 C 18,2 C 18,2 C 1,4 C 64 % 71 % 37 % 1017,4 hPa 0,0 l/m 5,5 km/h (1 Bft) W-SW 247 0 min 0,9 UV-I 10,0 C 18,2 C 10,5 km/h (2 Bft)
15.09.2012 16:10 16,8 C 20,5 C 16,4 C 18,2 C 18,2 C 1,4 C 64 % 71 % 37 % 1017,4 hPa 0,0 l/m 5,6 km/h (1 Bft) W-SW 247 0 min 0,9 UV-I 10,0 C 18,2 C 4,5 km/h (1 Bft)
15.09.2012 16:15 16,7 C 20,5 C 16,3 C 17,8 C 17,8 C 1,1 C 63 % 70 % 29 % 1017,4 hPa 0,0 l/m 7,2 km/h (2 Bft) NW 315 0 min 0,5 UV-I 9,6 C 17,8 C 10,0 km/h (2 Bft)
15.09.2012 16:20 16,7 C 20,5 C 16,3 C 17,6 C 17,6 C 0,9 C 64 % 71 % 24 % 1017,4 hPa 0,0 l/m 7,2 km/h (2 Bft) SW 225 0 min 0,3 UV-I 9,9 C 17,6 C 6,3 km/h (2 Bft)
15.09.2012 16:25 16,6 C 20,5 C 16,1 C 17,3 C 17,3 C 0,7 C 64 % 71 % 18 % 1017,4 hPa 0,0 l/m 6,6 km/h (2 Bft) W 270 0 min 0,2 UV-I 9,8 C 17,3 C 7,6 km/h (2 Bft)
15.09.2012 16:30 16,5 C 20,5 C 16,0 C 17,2 C 17,2 C 0,7 C 64 % 71 % 18 % 1017,4 hPa 0,0 l/m 6,1 km/h (2 Bft) W-NW 292 0 min 0,1 UV-I 9,7 C 17,2 C 6,4 km/h (2 Bft)
15.09.2012 16:35 16,5 C 20,5 C 16,0 C 17,1 C 17,1 C 0,6 C 65 % 72 % 16 % 1017,4 hPa 0,0 l/m 5,0 km/h (1 Bft) W 270 0 min 0,1 UV-I 9,9 C 17,1 C 3,9 km/h (1 Bft)
15.09.2012 16:40 16,5 C 20,5 C 16,0 C 17,0 C 17,0 C 0,5 C 65 % 72 % 13 % 1017,4 hPa 0,0 l/m 4,7 km/h (1 Bft) S 180 0 min 0,1 UV-I 9,9 C 17,0 C 3,5 km/h (1 Bft)
15.09.2012 16:45 16,5 C 20,5 C 15,9 C 16,8 C 16,8 C 0,3 C 65 % 72 % 8 % 1017,5 hPa 0,0 l/m 4,7 km/h (1 Bft) SW 225 0 min 0,0 UV-I 9,9 C 16,8 C 4,0 km/h (1 Bft)
15.09.2012 16:50 16,4 C 20,5 C 15,9 C 16,8 C 16,8 C 0,4 C 65 % 72 % 11 % 1017,5 hPa 0,0 l/m 5,0 km/h (1 Bft) W-SW 247 0 min 0,0 UV-I 9,8 C 16,8 C 9,0 km/h (2 Bft)
15.09.2012 16:55 16,3 C 20,5 C 15,9 C 16,6 C 16,6 C 0,3 C 65 % 72 % 8 % 1017,5 hPa 0,0 l/m 4,8 km/h (1 Bft) W-SW 247 0 min 0,0 UV-I 9,7 C 16,6 C 8,0 km/h (2 Bft)
15.09.2012 17:00 16,3 C 20,5 C 15,9 C 16,6 C 16,6 C 0,3 C 65 % 72 % 8 % 1017,5 hPa 0,0 l/m 4,5 km/h (1 Bft) W 270 0 min 0,0 UV-I 9,7 C 16,6 C 4,5 km/h (1 Bft)
15.09.2012 17:05 16,3 C 20,5 C 15,9 C 16,6 C 16,6 C 0,3 C 65 % 72 % 8 % 1017,6 hPa 0,0 l/m 4,7 km/h (1 Bft) W-SW 247 0 min 0,0 UV-I 9,7 C 16,6 C 4,8 km/h (1 Bft)
15.09.2012 17:10 16,2 C 20,5 C 15,9 C 16,6 C 16,6 C 0,4 C 66 % 72 % 11 % 1017,6 hPa 0,0 l/m 4,3 km/h (1 Bft) SW 225 0 min 0,0 UV-I 9,8 C 16,6 C 3,1 km/h (1 Bft)
15.09.2012 17:15 16,3 C 20,5 C 15,9 C 16,6 C 16,6 C 0,3 C 66 % 73 % 8 % 1017,6 hPa 0,0 l/m 4,0 km/h (1 Bft) SW 225 0 min 0,0 UV-I 9,9 C 16,6 C 4,0 km/h (1 Bft)
15.09.2012 17:20 16,2 C 20,5 C 15,9 C 16,6 C 16,6 C 0,4 C 65 % 72 % 11 % 1017,6 hPa 0,0 l/m 4,2 km/h (1 Bft) SW 225 0 min 0,0 UV-I 9,6 C 16,6 C 5,6 km/h (1 Bft)
15.09.2012 17:25 16,2 C 20,5 C 15,8 C 16,7 C 16,7 C 0,5 C 66 % 73 % 13 % 1017,6 hPa 0,0 l/m 4,2 km/h (1 Bft) S-SW 202 0 min 0,0 UV-I 9,8 C 16,7 C 4,5 km/h (1 Bft)
15.09.2012 17:30 16,3 C 20,5 C 15,9 C 16,8 C 16,8 C 0,5 C 66 % 73 % 13 % 1017,6 hPa 0,0 l/m 3,7 km/h (1 Bft) W 270 0 min 0,0 UV-I 9,9 C 16,8 C 4,5 km/h (1 Bft)
15.09.2012 17:35 16,3 C 20,6 C 15,9 C 16,8 C 16,8 C 0,5 C 66 % 73 % 13 % 1017,6 hPa 0,0 l/m 2,9 km/h (1 Bft) W-SW 247 0 min 0,0 UV-I 9,9 C 16,8 C 5,6 km/h (1 Bft)
15.09.2012 17:40 16,3 C 20,6 C 15,8 C 16,7 C 16,7 C 0,4 C 66 % 73 % 11 % 1017,6 hPa 0,0 l/m 2,7 km/h (1 Bft) SW 225 0 min 0,0 UV-I 9,9 C 16,7 C 5,8 km/h (2 Bft)
15.09.2012 17:45 16,3 C 20,6 C 15,7 C 16,5 C 16,5 C 0,2 C 67 % 74 % 5 % 1017,6 hPa 0,0 l/m 2,6 km/h (1 Bft) W-SW 247 0 min 0,0 UV-I 10,2 C 16,5 C 3,9 km/h (1 Bft)
15.09.2012 17:50 16,3 C 20,6 C 15,7 C 16,5 C 16,5 C 0,2 C 67 % 74 % 5 % 1017,6 hPa 0,0 l/m 2,3 km/h (1 Bft) W-SW 247 0 min 0,0 UV-I 10,2 C 16,5 C 2,1 km/h (1 Bft)
15.09.2012 17:55 16,1 C 20,6 C 15,6 C 16,3 C 16,3 C 0,2 C 67 % 74 % 5 % 1017,6 hPa 0,0 l/m 2,3 km/h (1 Bft) SW 225 0 min 0,0 UV-I 10,0 C 16,3 C 4,8 km/h (1 Bft)
15.09.2012 18:00 16,1 C 20,7 C 15,6 C 16,3 C 16,3 C 0,2 C 67 % 74 % 5 % 1017,6 hPa 0,0 l/m 2,9 km/h (1 Bft) SW 225 0 min 0,0 UV-I 10,0 C 16,3 C 5,8 km/h (2 Bft)
15.09.2012 18:05 16,1 C 20,6 C 15,7 C 16,3 C 16,3 C 0,2 C 66 % 74 % 5 % 1017,8 hPa 0,0 l/m 3,7 km/h (1 Bft) W 270 0 min 0,0 UV-I 9,7 C 16,3 C 4,5 km/h (1 Bft)
15.09.2012 18:10 16,1 C 20,7 C 15,6 C 16,3 C 16,3 C 0,2 C 67 % 74 % 5 % 1017,8 hPa 0,0 l/m 4,2 km/h (1 Bft) W-SW 247 0 min 0,0 UV-I 10,0 C 16,3 C 4,2 km/h (1 Bft)
15.09.2012 18:15 16,0 C 20,7 C 15,6 C 16,2 C 16,2 C 0,2 C 67 % 74 % 5 % 1017,8 hPa 0,0 l/m 3,9 km/h (1 Bft) SW 225 0 min 0,0 UV-I 9,9 C 16,2 C 5,5 km/h (1 Bft)
15.09.2012 18:20 16,1 C 20,7 C 15,5 C 16,1 C 16,1 C 0,0 C 67 % 74 % 0 % 1017,8 hPa 0,0 l/m 3,1 km/h (1 Bft) W-SW 247 0 min 0,0 UV-I 10,0 C 16,1 C 5,3 km/h (1 Bft)
15.09.2012 18:25 16,0 C 20,7 C 15,5 C 16,1 C 16,1 C 0,1 C 67 % 74 % 3 % 1017,9 hPa 0,0 l/m 3,1 km/h (1 Bft) SW 225 0 min 0,0 UV-I 9,9 C 16,1 C 2,9 km/h (1 Bft)
15.09.2012 18:30 16,0 C 20,7 C 15,5 C 16,1 C 16,1 C 0,1 C 67 % 74 % 3 % 1017,9 hPa 0,0 l/m 3,2 km/h (1 Bft) W-SW 247 0 min 0,0 UV-I 9,9 C 16,1 C 3,7 km/h (1 Bft)
15.09.2012 18:35 16,0 C 20,7 C 15,5 C 16,1 C 16,1 C 0,1 C 67 % 75 % 3 % 1017,9 hPa 0,0 l/m 2,6 km/h (1 Bft) S-SW 202 0 min 0,0 UV-I 9,9 C 16,1 C 2,6 km/h (1 Bft)
15.09.2012 18:42 15,9 C 20,7 C 15,3 C 15,9 C 15,9 C 0,0 C 67 % 75 % 0 % 1017,9 hPa 0,0 l/m 3,1 km/h (1 Bft) N 0 0 min 0,0 UV-I 9,8 C 15,9 C 2,9 km/h (1 Bft)
15.09.2012 18:55 15,9 C 20,7 C 15,3 C 15,8 C 15,7 C 0,0 C 67 % 75 % 0 % 1017,9 hPa 0,0 l/m 3,4 km/h (1 Bft) SW 225 0 min 0,0 UV-I 9,8 C 15,7 C 6,1 km/h (2 Bft)
15.09.2012 19:00 15,7 C 20,7 C 15,3 C 15,7 C 15,6 C 0,0 C 67 % 75 % 0 % 1017,9 hPa 0,0 l/m 3,4 km/h (1 Bft) SW 225 0 min 0,0 UV-I 9,6 C 15,6 C 4,2 km/h (1 Bft)
15.09.2012 19:05 15,6 C 20,7 C 15,2 C 15,6 C 15,5 C 0,0 C 67 % 75 % 0 % 1018,2 hPa 0,0 l/m 2,9 km/h (1 Bft) W-SW 247 0 min 0,0 UV-I 9,5 C 15,5 C 4,2 km/h (1 Bft)
15.09.2012 19:10 15,7 C 20,7 C 15,2 C 15,6 C 15,4 C 0,0 C 67 % 75 % 0 % 1018,2 hPa 0,0 l/m 2,9 km/h (1 Bft) S-SW 202 0 min 0,0 UV-I 9,6 C 15,4 C 2,3 km/h (1 Bft)
15.09.2012 19:15 15,5 C 20,7 C 15,1 C 15,5 C 15,4 C 0,0 C 67 % 75 % 0 % 1018,2 hPa 0,0 l/m 3,7 km/h (1 Bft) W-SW 247 0 min 0,0 UV-I 9,4 C 15,4 C 5,8 km/h (2 Bft)
15.09.2012 19:20 15,5 C 20,7 C 15,0 C 15,4 C 15,2 C 0,0 C 68 % 75 % 0 % 1018,2 hPa 0,0 l/m 3,4 km/h (1 Bft) W 270 0 min 0,0 UV-I 9,6 C 15,2 C 4,0 km/h (1 Bft)
15.09.2012 19:25 15,5 C 20,7 C 15,1 C 15,4 C 15,2 C 0,0 C 68 % 75 % 0 % 1018,3 hPa 0,0 l/m 2,9 km/h (1 Bft) S 180 0 min 0,0 UV-I 9,6 C 15,2 C 2,7 km/h (1 Bft)
15.09.2012 19:30 15,4 C 20,7 C 15,0 C 15,3 C 15,1 C 0,0 C 68 % 75 % 0 % 1018,3 hPa 0,0 l/m 3,1 km/h (1 Bft) W 270 0 min 0,0 UV-I 9,5 C 15,1 C 2,9 km/h (1 Bft)
15.09.2012 19:35 15,2 C 20,7 C 14,9 C 15,1 C 14,9 C 0,0 C 68 % 75 % 0 % 1018,3 hPa 0,0 l/m 3,2 km/h (1 Bft) SW 225 0 min 0,0 UV-I 9,3 C 14,9 C 4,8 km/h (1 Bft)
15.09.2012 19:40 15,3 C 20,7 C 14,8 C 15,2 C 14,9 C 0,0 C 68 % 75 % 0 % 1018,3 hPa 0,0 l/m 2,9 km/h (1 Bft) W 270 0 min 0,0 UV-I 9,4 C 14,9 C 3,5 km/h (1 Bft)
15.09.2012 19:45 15,1 C 20,7 C 14,8 C 15,0 C 14,7 C 0,0 C 68 % 75 % 0 % 1018,6 hPa 0,0 l/m 2,6 km/h (1 Bft) W-SW 247 0 min 0,0 UV-I 9,2 C 14,7 C 0,0 km/h (0 Bft)
15.09.2012 19:50 15,0 C 20,7 C 14,7 C 14,9 C 14,6 C 0,0 C 69 % 75 % 0 % 1018,6 hPa 0,0 l/m 2,1 km/h (1 Bft) W-SW 247 0 min 0,0 UV-I 9,4 C 14,6 C 1,8 km/h (1 Bft)
15.09.2012 19:55 14,9 C 20,7 C 14,7 C 14,7 C 14,4 C 0,0 C 69 % 76 % 0 % 1018,6 hPa 0,0 l/m 1,3 km/h (1 Bft) SW 225 0 min 0,0 UV-I 9,3 C 14,4 C 1,6 km/h (1 Bft)
15.09.2012 20:00 14,9 C 20,7 C 14,6 C 14,7 C 14,3 C 0,0 C 69 % 76 % 0 % 1018,6 hPa 0,0 l/m 0,8 km/h (0 Bft) W-SW 247 0 min 0,0 UV-I 9,3 C 14,3 C 2,9 km/h (1 Bft)
15.09.2012 20:05 14,7 C 20,7 C 14,5 C 14,6 C 14,3 C 0,0 C 70 % 77 % 0 % 1018,4 hPa 0,0 l/m 0,5 km/h (0 Bft) W-SW 247 0 min 0,0 UV-I 9,3 C 14,3 C 0,0 km/h (0 Bft)
15.09.2012 20:10 14,7 C 20,8 C 14,5 C 14,6 C 14,3 C 0,0 C 70 % 77 % 0 % 1018,4 hPa 0,0 l/m 0,3 km/h (0 Bft) W 270 0 min 0,0 UV-I 9,3 C 14,3 C 0,0 km/h (0 Bft)
15.09.2012 20:15 14,5 C 20,8 C 14,4 C 14,4 C 14,3 C 0,0 C 70 % 77 % 0 % 1018,4 hPa 0,0 l/m 0,0 km/h (0 Bft) S-SW 202 0 min 0,0 UV-I 9,1 C 14,3 C 0,0 km/h (0 Bft)
15.09.2012 20:20 14,5 C 20,8 C 14,4 C 14,4 C 14,3 C 0,0 C 71 % 77 % 0 % 1018,4 hPa 0,0 l/m 0,0 km/h (0 Bft) W-SW 247 0 min 0,0 UV-I 9,3 C 14,3 C 0,0 km/h (0 Bft)
15.09.2012 20:25 14,4 C 20,8 C 14,2 C 14,3 C 14,1 C 0,0 C 72 % 78 % 0 % 1018,7 hPa 0,0 l/m 0,0 km/h (0 Bft) O-SO 112 0 min 0,0 UV-I 9,4 C 14,1 C 0,0 km/h (0 Bft)
15.09.2012 20:30 14,2 C 20,8 C 14,1 C 14,1 C 14,0 C 0,0 C 72 % 78 % 0 % 1018,7 hPa 0,0 l/m 0,0 km/h (0 Bft) O-SO 112 0 min 0,0 UV-I 9,2 C 14,0 C 0,0 km/h (0 Bft)
15.09.2012 20:35 14,1 C 20,8 C 14,0 C 14,0 C 13,8 C 0,0 C 73 % 79 % 0 % 1018,7 hPa 0,0 l/m 0,0 km/h (0 Bft) O-SO 112 0 min 0,0 UV-I 9,3 C 13,8 C 0,0 km/h (0 Bft)
15.09.2012 20:40 14,0 C 20,8 C 13,9 C 13,9 C 13,7 C 0,0 C 74 % 80 % 0 % 1018,7 hPa 0,0 l/m 0,0 km/h (0 Bft) O-SO 112 0 min 0,0 UV-I 9,4 C 13,7 C 0,0 km/h (0 Bft)
15.09.2012 20:45 14,1 C 20,8 C 13,8 C 14,0 C 13,7 C 0,0 C 74 % 80 % 0 % 1018,9 hPa 0,0 l/m 0,0 km/h (0 Bft) O-SO 112 0 min 0,0 UV-I 9,5 C 13,7 C 0,0 km/h (0 Bft)
15.09.2012 20:50 14,0 C 20,9 C 13,9 C 13,9 C 13,6 C 0,0 C 75 % 81 % 0 % 1018,9 hPa 0,0 l/m 0,0 km/h (0 Bft) O-SO 112 0 min 0,0 UV-I 9,6 C 13,6 C 0,0 km/h (0 Bft)
15.09.2012 20:55 13,8 C 20,8 C 13,7 C 13,7 C 13,4 C 0,0 C 75 % 81 % 0 % 1018,9 hPa 0,0 l/m 0,0 km/h (0 Bft) O-SO 112 0 min 0,0 UV-I 9,4 C 13,4 C 0,0 km/h (0 Bft)
15.09.2012 21:00 13,9 C 20,9 C 13,7 C 13,7 C 13,4 C 0,0 C 76 % 81 % 0 % 1018,9 hPa 0,0 l/m 0,0 km/h (0 Bft) O-SO 112 0 min 0,0 UV-I 9,7 C 13,4 C 0,0 km/h (0 Bft)
15.09.2012 21:05 13,7 C 20,8 C 13,6 C 13,6 C 13,3 C 0,0 C 76 % 82 % 0 % 1019,0 hPa 0,0 l/m 0,0 km/h (0 Bft) O-SO 112 0 min 0,0 UV-I 9,5 C 13,3 C 0,0 km/h (0 Bft)
15.09.2012 21:10 13,7 C 20,8 C 13,6 C 13,5 C 13,2 C 0,0 C 76 % 82 % 0 % 1019,0 hPa 0,0 l/m 0,0 km/h (0 Bft) O-SO 112 0 min 0,0 UV-I 9,5 C 13,2 C 0,0 km/h (0 Bft)
15.09.2012 21:15 13,6 C 20,9 C 13,6 C 13,5 C 13,2 C 0,0 C 77 % 82 % 0 % 1019,0 hPa 0,0 l/m 0,0 km/h (0 Bft) O-SO 112 0 min 0,0 UV-I 9,6 C 13,2 C 0,0 km/h (0 Bft)
15.09.2012 21:20 13,5 C 20,9 C 13,6 C 13,4 C 13,2 C 0,0 C 77 % 82 % 0 % 1019,0 hPa 0,0 l/m 0,0 km/h (0 Bft) O-SO 112 0 min 0,0 UV-I 9,5 C 13,2 C 0,0 km/h (0 Bft)
15.09.2012 21:25 13,5 C 20,9 C 13,5 C 13,4 C 13,2 C 0,0 C 78 % 82 % 0 % 1019,1 hPa 0,0 l/m 0,0 km/h (0 Bft) O-SO 112 0 min 0,0 UV-I 9,7 C 13,2 C 0,0 km/h (0 Bft)
15.09.2012 21:30 13,4 C 20,9 C 13,5 C 13,3 C 13,2 C 0,0 C 78 % 82 % 0 % 1019,1 hPa 0,0 l/m 0,0 km/h (0 Bft) O-SO 112 0 min 0,0 UV-I 9,6 C 13,2 C 0,0 km/h (0 Bft)
15.09.2012 21:35 13,4 C 20,9 C 13,5 C 13,3 C 13,2 C 0,0 C 78 % 83 % 0 % 1019,1 hPa 0,0 l/m 0,0 km/h (0 Bft) O 90 0 min 0,0 UV-I 9,6 C 13,2 C 0,0 km/h (0 Bft)
15.09.2012 21:40 13,3 C 20,9 C 13,5 C 13,3 C 13,2 C 0,0 C 78 % 83 % 0 % 1019,1 hPa 0,0 l/m 0,0 km/h (0 Bft) O-NO 67 0 min 0,0 UV-I 9,5 C 13,2 C 0,0 km/h (0 Bft)
15.09.2012 21:45 13,2 C 20,9 C 13,4 C 13,2 C 13,2 C 0,0 C 79 % 83 % 0 % 1019,1 hPa 0,0 l/m 0,0 km/h (0 Bft) O-NO 67 0 min 0,0 UV-I 9,6 C 13,2 C 0,0 km/h (0 Bft)
15.09.2012 21:50 13,3 C 20,9 C 13,4 C 13,3 C 13,2 C 0,0 C 79 % 84 % 0 % 1019,1 hPa 0,0 l/m 0,0 km/h (0 Bft) O-SO 112 0 min 0,0 UV-I 9,7 C 13,2 C 0,0 km/h (0 Bft)
15.09.2012 21:55 13,2 C 20,9 C 13,4 C 13,3 C 13,3 C 0,1 C 79 % 84 % 0 % 1019,1 hPa 0,0 l/m 0,0 km/h (0 Bft) NO 45 0 min 0,0 UV-I 9,6 C 13,3 C 0,0 km/h (0 Bft)
15.09.2012 22:00 13,2 C 20,9 C 13,5 C 13,3 C 13,3 C 0,1 C 79 % 84 % 0 % 1019,1 hPa 0,0 l/m 0,0 km/h (0 Bft) O 90 0 min 0,0 UV-I 9,6 C 13,3 C 0,0 km/h (0 Bft)
15.09.2012 22:05 13,3 C 20,9 C 13,5 C 13,3 C 13,3 C 0,0 C 79 % 84 % 0 % 1019,1 hPa 0,0 l/m 0,0 km/h (0 Bft) O 90 0 min 0,0 UV-I 9,7 C 13,3 C 0,0 km/h (0 Bft)
15.09.2012 22:10 13,2 C 20,9 C 13,4 C 13,3 C 13,3 C 0,1 C 79 % 84 % 0 % 1019,1 hPa 0,0 l/m 0,0 km/h (0 Bft) S 180 0 min 0,0 UV-I 9,6 C 13,3 C 0,0 km/h (0 Bft)
15.09.2012 22:15 13,2 C 20,9 C 13,4 C 13,3 C 13,3 C 0,1 C 79 % 84 % 0 % 1019,1 hPa 0,0 l/m 0,0 km/h (0 Bft) W-SW 247 0 min 0,0 UV-I 9,6 C 13,3 C 0,0 km/h (0 Bft)
15.09.2012 22:20 13,3 C 20,9 C 13,5 C 13,3 C 13,2 C 0,0 C 79 % 84 % 0 % 1019,1 hPa 0,0 l/m 0,0 km/h (0 Bft) SW 225 0 min 0,0 UV-I 9,7 C 13,2 C 0,0 km/h (0 Bft)
15.09.2012 22:25 13,3 C 20,9 C 13,5 C 13,3 C 13,3 C 0,0 C 78 % 84 % 0 % 1019,2 hPa 0,0 l/m 0,0 km/h (0 Bft) SW 225 0 min 0,0 UV-I 9,5 C 13,3 C 0,0 km/h (0 Bft)
15.09.2012 22:30 13,2 C 20,9 C 13,4 C 13,2 C 13,2 C 0,0 C 79 % 84 % 0 % 1019,2 hPa 0,0 l/m 0,0 km/h (0 Bft) W-SW 247 0 min 0,0 UV-I 9,6 C 13,2 C 0,0 km/h (0 Bft)
15.09.2012 22:35 13,2 C 20,9 C 13,5 C 13,2 C 13,2 C 0,0 C 79 % 84 % 0 % 1019,2 hPa 0,0 l/m 0,0 km/h (0 Bft) SO 135 0 min 0,0 UV-I 9,6 C 13,2 C 0,0 km/h (0 Bft)
15.09.2012 22:40 13,2 C 20,9 C 13,3 C 13,2 C 13,2 C 0,0 C 79 % 84 % 0 % 1019,2 hPa 0,0 l/m 0,0 km/h (0 Bft) O-SO 112 0 min 0,0 UV-I 9,6 C 13,2 C 0,0 km/h (0 Bft)
15.09.2012 22:45 13,1 C 21,0 C 13,3 C 13,2 C 13,2 C 0,1 C 79 % 84 % 0 % 1019,5 hPa 0,0 l/m 0,0 km/h (0 Bft) S-SO 157 0 min 0,0 UV-I 9,5 C 13,2 C 0,0 km/h (0 Bft)
15.09.2012 22:50 13,1 C 21,0 C 13,3 C 13,2 C 13,2 C 0,1 C 79 % 84 % 0 % 1019,5 hPa 0,0 l/m 0,0 km/h (0 Bft) S-SO 157 0 min 0,0 UV-I 9,5 C 13,2 C 0,0 km/h (0 Bft)
15.09.2012 22:55 13,1 C 21,0 C 13,3 C 13,1 C 13,1 C 0,0 C 79 % 84 % 0 % 1019,5 hPa 0,0 l/m 0,0 km/h (0 Bft) S-SO 157 0 min 0,0 UV-I 9,5 C 13,1 C 0,0 km/h (0 Bft)
15.09.2012 23:00 13,0 C 21,0 C 13,2 C 13,0 C 13,0 C 0,0 C 79 % 84 % 0 % 1019,5 hPa 0,0 l/m 0,0 km/h (0 Bft) S-SO 157 0 min 0,0 UV-I 9,4 C 13,0 C 0,0 km/h (0 Bft)
15.09.2012 23:05 13,0 C 21,0 C 13,3 C 13,0 C 13,0 C 0,0 C 80 % 84 % 0 % 1019,2 hPa 0,0 l/m 0,0 km/h (0 Bft) SO 135 0 min 0,0 UV-I 9,6 C 13,0 C 0,0 km/h (0 Bft)
15.09.2012 23:10 12,9 C 21,0 C 13,2 C 12,9 C 12,9 C 0,0 C 80 % 84 % 0 % 1019,2 hPa 0,0 l/m 0,0 km/h (0 Bft) O 90 0 min 0,0 UV-I 9,5 C 12,9 C 0,0 km/h (0 Bft)
15.09.2012 23:15 12,8 C 21,0 C 13,2 C 12,8 C 12,8 C 0,0 C 80 % 84 % 0 % 1019,2 hPa 0,0 l/m 0,0 km/h (0 Bft) O 90 0 min 0,0 UV-I 9,4 C 12,8 C 0,0 km/h (0 Bft)
15.09.2012 23:20 12,9 C 21,0 C 13,2 C 12,8 C 12,6 C 0,0 C 80 % 84 % 0 % 1019,2 hPa 0,0 l/m 0,0 km/h (0 Bft) O-SO 112 0 min 0,0 UV-I 9,5 C 12,6 C 0,0 km/h (0 Bft)
15.09.2012 23:25 12,8 C 21,0 C 13,0 C 12,7 C 12,4 C 0,0 C 80 % 84 % 0 % 1019,6 hPa 0,0 l/m 0,0 km/h (0 Bft) S-SO 157 0 min 0,0 UV-I 9,4 C 12,4 C 0,0 km/h (0 Bft)
15.09.2012 23:30 12,7 C 21,0 C 13,1 C 12,5 C 12,2 C 0,0 C 79 % 84 % 0 % 1019,6 hPa 0,0 l/m 0,0 km/h (0 Bft) W-SW 247 0 min 0,0 UV-I 9,2 C 12,2 C 0,0 km/h (0 Bft)
15.09.2012 23:35 12,7 C 21,0 C 12,8 C 12,4 C 11,9 C 0,0 C 79 % 83 % 0 % 1019,6 hPa 0,0 l/m 0,0 km/h (0 Bft) S-SO 157 0 min 0,0 UV-I 9,2 C 11,9 C 0,0 km/h (0 Bft)
15.09.2012 23:40 12,5 C 21,0 C 12,6 C 12,2 C 11,6 C 0,0 C 79 % 84 % 0 % 1019,6 hPa 0,0 l/m 0,0 km/h (0 Bft) S-SO 157 0 min 0,0 UV-I 9,0 C 11,6 C 0,0 km/h (0 Bft)
15.09.2012 23:45 12,3 C 21,0 C 12,4 C 12,0 C 11,3 C 0,0 C 80 % 84 % 0 % 1019,2 hPa 0,0 l/m 0,0 km/h (0 Bft) S-SO 157 0 min 0,0 UV-I 8,9 C 11,3 C 0,0 km/h (0 Bft)
15.09.2012 23:50 12,2 C 21,0 C 12,3 C 11,8 C 11,0 C 0,0 C 80 % 84 % 0 % 1019,2 hPa 0,0 l/m 0,0 km/h (0 Bft) NO 45 0 min 0,0 UV-I 8,9 C 11,0 C 0,0 km/h (0 Bft)
15.09.2012 23:55 12,1 C 21,0 C 12,2 C 11,7 C 10,8 C 0,0 C 80 % 84 % 0 % 1019,2 hPa 0,0 l/m 0,0 km/h (0 Bft) O 90 0 min 0,0 UV-I 8,8 C 10,8 C 0,0 km/h (0 Bft)
_ Min-Zeit 04:55 09:30 04:45 04:45 23:55 00:00 15:20 15:15 00:00 00:00 - 20:15 - - - 00:00 04:55 23:55 19:45
Minimum _ 11,1 C 20,3 C 12,2 C 11,2 C 10,8 C 0,0 C 63 % 70 % 0 % 1011,1 hPa - 0,0 km/h (0 Bft) - - - 0,0 UV-I 8,1 C 10,8 C 0,0 km/h (0 Bft)
_ Max-Zeit 15:30 22:45 15:25 15:15 15:15 15:15 05:00 05:15 15:15 23:25 00:00 01:05 - - 07:00 13:35 10:35 15:15 01:25
Maximum _ 16,9 C 21,0 C 16,7 C 19,2 C 19,2 C 2,4 C 83 % 86 % 63 % 1019,6 hPa 0,0 l/m 11,3 km/h
W-SW (2 Bft)
- - 5 min 1,7 UV-I 10,5 C 19,2 C 22,2 km/h
W (4 Bft)
Durchschnitt _ 14,1 C 20,6 C 14,2 C 14,6 C 14,5 C 0,6 C 75 % 80 % 14 % 1015,7 hPa #0,0 l/m 4,5 km/h (1 Bft) W-SW - #20 min. 0,7 UV-I 9,6 C 14,5 C 5,7 km/h (1 Bft)
2012 www.wetterstation-wechselburg.de